Time,TemperatureF,DewpointF,PressureIn,WindDirection,WindDirectionDegrees,WindSpeedMPH,WindSpeedGustMPH,Humidity,HourlyPrecipIn,Conditions,Clouds,dailyrainin,SoftwareType,DateUTC
2013-12-14 00:01:00,3.7,-17.0,17.72,SSE,158,0.0,0.0,37,0.00,,,0.00,WUHU216WMR968SP,2013-12-14 05:01:00,
2013-12-14 00:02:00,3.7,-17.0,17.72,NE,37,0.0,0.0,37,0.00,,,0.00,WUHU216WMR968SP,2013-12-14 05:02:00,
2013-12-14 00:07:00,3.7,-17.0,17.72,NE,36,0.0,0.0,37,0.00,,,0.00,WUHU216WMR968SP,2013-12-14 05:07:00,
2013-12-14 00:12:00,3.7,-17.0,17.72,NE,37,0.0,3.1,37,0.00,,,0.00,WUHU216WMR968SP,2013-12-14 05:12:00,
2013-12-14 00:17:00,3.7,-17.0,17.72,NE,37,0.0,3.1,37,0.00,,,0.00,WUHU216WMR968SP,2013-12-14 05:17:00,
2013-12-14 00:22:00,3.7,-17.0,17.72,NE,35,0.0,0.0,37,0.00,,,0.00,WUHU216WMR968SP,2013-12-14 05:22:00,
2013-12-14 00:27:00,3.7,-17.0,17.72,North,2,0.0,0.0,37,0.00,,,0.00,WUHU216WMR968SP,2013-12-14 05:27:00,
2013-12-14 00:32:00,3.6,-17.0,17.72,NNE,23,0.0,4.0,37,0.00,,,0.00,WUHU216WMR968SP,2013-12-14 05:32:00,
2013-12-14 00:37:00,3.7,-17.0,17.72,NE,36,0.0,4.0,37,0.00,,,0.00,WUHU216WMR968SP,2013-12-14 05:37:00,
2013-12-14 00:42:00,3.7,-17.0,17.72,NE,36,0.0,5.4,37,0.00,,,0.00,WUHU216WMR968SP,2013-12-14 05:42:00,
2013-12-14 00:47:00,3.7,-17.0,17.72,North,357,0.0,5.4,37,0.00,,,0.00,WUHU216WMR968SP,2013-12-14 05:47:00,
2013-12-14 00:52:00,3.7,-17.0,17.72,SW,228,2.2,4.9,37,0.00,,,0.00,WUHU216WMR968SP,2013-12-14 05:52:00,
2013-12-14 00:57:00,3.6,-17.0,17.72,NE,34,2.7,5.4,37,0.00,,,0.00,WUHU216WMR968SP,2013-12-14 05:57:00,
2013-12-14 01:02:00,3.6,-17.0,17.72,ENE,65,0.0,5.4,37,0.00,,,0.00,WUHU216WMR968SP,2013-12-14 06:02:00,
2013-12-14 01:07:00,3.6,-17.0,17.72,SE,146,0.0,2.7,37,0.00,,,0.00,WUHU216WMR968SP,2013-12-14 06:07:00,
2013-12-14 01:12:00,3.2,-17.4,17.72,SE,146,0.0,2.7,37,0.00,,,0.00,WUHU216WMR968SP,2013-12-14 06:12:00,
2013-12-14 01:17:00,3.2,-17.4,17.72,South,189,0.0,0.0,37,0.00,,,0.00,WUHU216WMR968SP,2013-12-14 06:17:00,
2013-12-14 01:22:00,3.0,-17.6,17.72,NNE,18,0.0,3.6,37,0.00,,,0.00,WUHU216WMR968SP,2013-12-14 06:22:00,
2013-12-14 01:27:00,3.2,-17.4,17.72,NNE,30,0.0,4.0,37,0.00,,,0.00,WUHU216WMR968SP,2013-12-14 06:27:00,
2013-12-14 01:32:00,3.2,-17.4,17.72,NE,40,0.0,4.0,37,0.00,,,0.00,WUHU216WMR968SP,2013-12-14 06:32:00,
2013-12-14 01:37:00,3.2,-17.4,17.72,WSW,252,0.0,4.0,37,0.00,,,0.00,WUHU216WMR968SP,2013-12-14 06:37:00,
2013-12-14 01:42:00,3.2,-17.4,17.72,NNE,17,2.2,4.0,37,0.00,,,0.00,WUHU216WMR968SP,2013-12-14 06:42:00,
2013-12-14 01:47:00,3.2,-17.4,17.72,NE,35,0.0,6.3,37,0.00,,,0.00,WUHU216WMR968SP,2013-12-14 06:47:00,
2013-12-14 01:52:00,2.8,-17.8,17.72,East,96,0.0,6.3,37,0.00,,,0.00,WUHU216WMR968SP,2013-12-14 06:52:00,
2013-12-14 01:57:00,2.8,-17.8,17.72,SW,226,0.0,0.0,37,0.00,,,0.00,WUHU216WMR968SP,2013-12-14 06:57:00,
2013-12-14 02:02:00,3.0,-17.6,17.72,NNE,24,0.0,0.0,37,0.00,,,0.00,WUHU216WMR968SP,2013-12-14 07:02:00,
2013-12-14 02:07:00,3.0,-17.6,17.72,North,3,0.0,4.9,37,0.00,,,0.00,WUHU216WMR968SP,2013-12-14 07:07:00,
2013-12-14 02:12:00,2.8,-17.8,17.72,East,82,0.0,4.9,37,0.00,,,0.00,WUHU216WMR968SP,2013-12-14 07:12:00,
2013-12-14 02:17:00,3.0,-17.6,17.72,NE,47,0.0,3.6,37,0.00,,,0.00,WUHU216WMR968SP,2013-12-14 07:17:00,
2013-12-14 02:22:00,3.0,-17.6,17.72,NE,38,0.0,3.6,37,0.00,,,0.00,WUHU216WMR968SP,2013-12-14 07:22:00,
2013-12-14 02:27:00,3.0,-17.6,17.72,North,353,0.0,12.8,37,0.00,,,0.00,WUHU216WMR968SP,2013-12-14 07:27:00,
2013-12-14 02:32:00,3.2,-17.4,17.72,ENE,70,0.0,12.8,37,0.00,,,0.00,WUHU216WMR968SP,2013-12-14 07:32:00,
2013-12-14 02:37:00,3.2,-17.4,17.72,South,179,2.2,5.4,37,0.00,,,0.00,WUHU216WMR968SP,2013-12-14 07:37:00,
2013-12-14 02:42:00,2.7,-17.8,17.72,WSW,246,2.7,6.3,37,0.00,,,0.00,WUHU216WMR968SP,2013-12-14 07:42:00,
2013-12-14 02:47:00,2.5,-18.0,17.72,SE,136,0.0,6.3,37,0.00,,,0.00,WUHU216WMR968SP,2013-12-14 07:47:00,
2013-12-14 02:52:00,2.5,-18.0,17.72,SSW,207,2.2,5.8,37,0.00,,,0.00,WUHU216WMR968SP,2013-12-14 07:52:00,
2013-12-14 02:57:00,2.7,-17.8,17.72,ESE,115,0.0,5.8,37,0.00,,,0.00,WUHU216WMR968SP,2013-12-14 07:57:00,
2013-12-14 03:02:00,2.7,-17.8,17.72,SSE,161,0.0,4.9,37,0.00,,,0.00,WUHU216WMR968SP,2013-12-14 08:02:00,
2013-12-14 03:07:00,2.5,-18.0,17.72,East,82,2.2,4.9,37,0.00,,,0.00,WUHU216WMR968SP,2013-12-14 08:07:00,
2013-12-14 03:12:00,2.8,-17.8,17.72,NE,52,0.0,4.9,37,0.00,,,0.00,WUHU216WMR968SP,2013-12-14 08:12:00,
2013-12-14 03:17:00,2.8,-17.8,17.72,North,8,2.2,4.9,37,0.00,,,0.00,WUHU216WMR968SP,2013-12-14 08:17:00,
2013-12-14 03:22:00,2.8,-17.8,17.72,East,89,0.0,4.9,37,0.00,,,0.00,WUHU216WMR968SP,2013-12-14 08:22:00,
2013-12-14 03:27:00,2.8,-17.8,17.72,NNE,16,0.0,4.0,37,0.00,,,0.00,WUHU216WMR968SP,2013-12-14 08:27:00,
2013-12-14 03:32:00,2.8,-17.8,17.72,NNE,17,0.0,4.0,37,0.00,,,0.00,WUHU216WMR968SP,2013-12-14 08:32:00,
2013-12-14 03:37:00,2.8,-17.8,17.72,North,6,0.0,4.0,37,0.00,,,0.00,WUHU216WMR968SP,2013-12-14 08:37:00,
2013-12-14 03:42:00,2.8,-17.8,17.72,NNE,20,0.0,5.8,37,0.00,,,0.00,WUHU216WMR968SP,2013-12-14 08:42:00,
2013-12-14 03:47:00,3.2,-17.4,17.72,NNE,19,2.7,5.8,37,0.00,,,0.00,WUHU216WMR968SP,2013-12-14 08:47:00,
2013-12-14 03:52:00,3.0,-17.6,17.72,NNE,19,3.1,5.8,37,0.00,,,0.00,WUHU216WMR968SP,2013-12-14 08:52:00,
2013-12-14 03:57:00,3.2,-17.4,17.72,NE,38,2.2,6.7,37,0.00,,,0.00,WUHU216WMR968SP,2013-12-14 08:57:00,
2013-12-14 04:02:00,3.0,-17.6,17.72,ESE,118,2.2,6.7,37,0.00,,,0.00,WUHU216WMR968SP,2013-12-14 09:02:00,
2013-12-14 04:07:00,2.8,-17.8,17.72,North,8,2.2,4.0,37,0.00,,,0.00,WUHU216WMR968SP,2013-12-14 09:07:00,
2013-12-14 04:12:00,3.0,-17.6,17.72,NW,320,0.0,4.0,37,0.00,,,0.00,WUHU216WMR968SP,2013-12-14 09:12:00,
2013-12-14 04:17:00,3.0,-17.6,17.72,SW,229,0.0,3.6,37,0.00,,,0.00,WUHU216WMR968SP,2013-12-14 09:17:00,
2013-12-14 04:22:00,3.0,-17.6,17.72,North,9,3.1,4.9,37,0.00,,,0.00,WUHU216WMR968SP,2013-12-14 09:22:00,
2013-12-14 04:27:00,3.2,-17.4,17.72,NNE,26,0.0,4.9,37,0.00,,,0.00,WUHU216WMR968SP,2013-12-14 09:27:00,
2013-12-14 04:32:00,3.2,-17.4,17.72,North,2,3.1,6.3,37,0.00,,,0.00,WUHU216WMR968SP,2013-12-14 09:32:00,
2013-12-14 04:37:00,3.2,-17.4,17.72,North,357,4.0,6.3,37,0.00,,,0.00,WUHU216WMR968SP,2013-12-14 09:37:00,
2013-12-14 04:42:00,3.2,-17.4,17.72,North,11,0.0,5.8,37,0.00,,,0.00,WUHU216WMR968SP,2013-12-14 09:42:00,
2013-12-14 04:47:00,3.0,-17.6,17.72,NNE,19,0.0,4.0,37,0.00,,,0.00,WUHU216WMR968SP,2013-12-14 09:47:00,
2013-12-14 04:52:00,2.8,-17.8,17.72,NNE,19,0.0,0.0,37,0.00,,,0.00,WUHU216WMR968SP,2013-12-14 09:52:00,
2013-12-14 04:57:00,2.8,-17.8,17.72,NNE,28,0.0,0.0,37,0.00,,,0.00,WUHU216WMR968SP,2013-12-14 09:57:00,
2013-12-14 05:02:00,2.8,-17.8,17.72,North,357,0.0,0.0,37,0.00,,,0.00,WUHU216WMR968SP,2013-12-14 10:02:00,
2013-12-14 05:07:00,3.2,-17.4,17.72,NNE,29,3.1,3.6,37,0.00,,,0.00,WUHU216WMR968SP,2013-12-14 10:07:00,
2013-12-14 05:12:00,3.2,-17.4,17.72,ENE,61,0.0,3.6,37,0.00,,,0.00,WUHU216WMR968SP,2013-12-14 10:12:00,
2013-12-14 05:17:00,3.0,-17.6,17.72,NNE,16,0.0,3.6,37,0.00,,,0.00,WUHU216WMR968SP,2013-12-14 10:17:00,
2013-12-14 05:22:00,3.0,-17.6,17.72,North,357,0.0,0.0,37,0.00,,,0.00,WUHU216WMR968SP,2013-12-14 10:22:00,
2013-12-14 05:27:00,2.8,-17.8,17.72,NNE,18,0.0,0.0,37,0.00,,,0.00,WUHU216WMR968SP,2013-12-14 10:27:00,
2013-12-14 05:32:00,2.8,-17.8,17.72,SW,216,0.0,0.0,37,0.00,,,0.00,WUHU216WMR968SP,2013-12-14 10:32:00,
2013-12-14 05:37:00,2.5,-18.0,17.72,SSE,149,0.0,0.0,37,0.00,,,0.00,WUHU216WMR968SP,2013-12-14 10:37:00,
2013-12-14 05:42:00,2.5,-18.0,17.72,South,181,3.1,5.4,37,0.00,,,0.00,WUHU216WMR968SP,2013-12-14 10:42:00,
2013-12-14 05:47:00,2.5,-18.0,17.72,SE,144,2.2,8.1,37,0.00,,,0.00,WUHU216WMR968SP,2013-12-14 10:47:00,
2013-12-14 05:52:00,2.5,-18.0,17.72,SSE,165,2.2,8.1,37,0.00,,,0.00,WUHU216WMR968SP,2013-12-14 10:52:00,
2013-12-14 05:57:00,2.8,-17.8,17.72,South,172,0.0,4.0,37,0.00,,,0.00,WUHU216WMR968SP,2013-12-14 10:57:00,
2013-12-14 06:02:00,2.8,-17.8,17.72,SE,130,2.7,6.3,37,0.00,,,0.00,WUHU216WMR968SP,2013-12-14 11:02:00,
2013-12-14 06:07:00,2.8,-17.8,17.72,SSE,156,3.1,6.3,37,0.00,,,0.00,WUHU216WMR968SP,2013-12-14 11:07:00,
2013-12-14 06:12:00,2.7,-17.8,17.72,SSW,203,2.7,5.8,37,0.00,,,0.00,WUHU216WMR968SP,2013-12-14 11:12:00,
2013-12-14 06:17:00,2.8,-17.8,17.72,East,85,0.0,4.9,37,0.00,,,0.00,WUHU216WMR968SP,2013-12-14 11:17:00,
2013-12-14 06:22:00,3.0,-17.6,17.72,SW,227,0.0,4.0,37,0.00,,,0.00,WUHU216WMR968SP,2013-12-14 11:22:00,
2013-12-14 06:27:00,3.0,-17.6,17.72,NNE,32,0.0,0.0,37,0.00,,,0.00,WUHU216WMR968SP,2013-12-14 11:27:00,
2013-12-14 06:32:00,3.2,-17.4,17.72,NNE,25,0.0,0.0,37,0.00,,,0.00,WUHU216WMR968SP,2013-12-14 11:32:00,
2013-12-14 06:37:00,3.0,-17.6,17.72,ESE,109,0.0,0.0,37,0.00,,,0.00,WUHU216WMR968SP,2013-12-14 11:37:00,
2013-12-14 06:42:00,3.0,-17.6,17.72,NE,50,0.0,0.0,37,0.00,,,0.00,WUHU216WMR968SP,2013-12-14 11:42:00,
2013-12-14 06:47:00,3.0,-17.6,17.72,SSE,150,0.0,0.0,37,0.00,,,0.00,WUHU216WMR968SP,2013-12-14 11:47:00,
2013-12-14 06:52:00,3.2,-17.4,17.72,ESE,116,0.0,3.6,37,0.00,,,0.00,WUHU216WMR968SP,2013-12-14 11:52:00,
2013-12-14 06:57:00,2.8,-17.8,17.72,SSE,155,0.0,3.6,37,0.00,,,0.00,WUHU216WMR968SP,2013-12-14 11:57:00,
2013-12-14 07:02:00,2.7,-17.8,17.72,SSE,150,0.0,3.1,37,0.00,,,0.00,WUHU216WMR968SP,2013-12-14 12:02:00,
2013-12-14 07:07:00,2.5,-18.0,17.72,SSE,153,0.0,0.0,37,0.00,,,0.00,WUHU216WMR968SP,2013-12-14 12:07:00,
2013-12-14 07:12:00,2.5,-18.0,17.72,SW,226,0.0,3.1,37,0.00,,,0.00,WUHU216WMR968SP,2013-12-14 12:12:00,
2013-12-14 07:17:00,2.3,-18.2,17.72,SW,234,0.0,3.1,37,0.00,,,0.00,WUHU216WMR968SP,2013-12-14 12:17:00,
2013-12-14 07:22:00,2.1,-18.4,17.72,SW,230,0.0,0.0,37,0.00,,,0.00,WUHU216WMR968SP,2013-12-14 12:22:00,
2013-12-14 07:27:00,1.9,-18.6,17.72,South,173,0.0,0.0,37,0.00,,,0.00,WUHU216WMR968SP,2013-12-14 12:27:00,
2013-12-14 07:32:00,2.3,-18.2,17.72,SE,130,0.0,0.0,37,0.00,,,0.00,WUHU216WMR968SP,2013-12-14 12:32:00,
2013-12-14 07:37:00,2.8,-17.8,17.72,SE,133,0.0,0.0,37,0.00,,,0.00,WUHU216WMR968SP,2013-12-14 12:37:00,
2013-12-14 07:42:00,3.2,-17.4,17.72,SE,144,0.0,0.0,37,0.00,,,0.00,WUHU216WMR968SP,2013-12-14 12:42:00,
2013-12-14 07:47:00,3.7,-17.0,17.72,ENE,73,0.0,0.0,37,0.00,,,0.00,WUHU216WMR968SP,2013-12-14 12:47:00,
2013-12-14 07:52:00,4.1,-16.6,17.72,ESE,119,0.0,0.0,37,0.00,,,0.00,WUHU216WMR968SP,2013-12-14 12:52:00,
2013-12-14 07:57:00,4.5,-16.2,17.72,SE,142,3.6,5.8,37,0.00,,,0.00,WUHU216WMR968SP,2013-12-14 12:57:00,
2013-12-14 08:02:00,5.0,-15.8,17.72,East,98,3.1,7.6,37,0.00,,,0.00,WUHU216WMR968SP,2013-12-14 13:02:00,
2013-12-14 08:07:00,5.2,-15.6,17.72,South,170,0.0,7.6,37,0.00,,,0.00,WUHU216WMR968SP,2013-12-14 13:07:00,
2013-12-14 08:12:00,5.5,-15.3,17.72,ENE,64,0.0,4.9,37,0.00,,,0.00,WUHU216WMR968SP,2013-12-14 13:12:00,
2013-12-14 08:17:00,5.7,-15.2,17.72,NNE,31,0.0,4.9,37,0.00,,,0.00,WUHU216WMR968SP,2013-12-14 13:17:00,
2013-12-14 08:22:00,6.3,-14.6,17.72,NE,38,0.0,3.6,37,0.00,,,0.00,WUHU216WMR968SP,2013-12-14 13:22:00,
2013-12-14 08:27:00,6.4,-14.5,17.72,ENE,73,0.0,0.0,37,0.00,,,0.00,WUHU216WMR968SP,2013-12-14 13:27:00,
2013-12-14 08:32:00,7.0,-14.0,17.72,South,175,0.0,0.0,37,0.00,,,0.00,WUHU216WMR968SP,2013-12-14 13:32:00,
2013-12-14 08:37:00,7.3,-13.7,17.72,SSW,197,0.0,3.6,37,0.00,,,0.00,WUHU216WMR968SP,2013-12-14 13:37:00,
2013-12-14 08:42:00,7.9,-13.2,17.72,East,84,0.0,3.6,37,0.00,,,0.00,WUHU216WMR968SP,2013-12-14 13:42:00,
2013-12-14 08:47:00,7.9,-13.2,17.72,NE,48,0.0,4.0,37,0.00,,,0.00,WUHU216WMR968SP,2013-12-14 13:47:00,
2013-12-14 08:52:00,8.4,-12.7,17.72,ENE,60,0.0,4.0,37,0.00,,,0.00,WUHU216WMR968SP,2013-12-14 13:52:00,
2013-12-14 08:57:00,8.8,-12.4,17.72,South,174,0.0,0.0,37,0.00,,,0.00,WUHU216WMR968SP,2013-12-14 13:57:00,
2013-12-14 09:02:00,9.3,-11.9,17.72,SE,139,0.0,3.1,37,0.00,,,0.00,WUHU216WMR968SP,2013-12-14 14:02:00,
2013-12-14 09:07:00,9.9,-11.4,17.72,ESE,114,0.0,3.1,37,0.00,,,0.00,WUHU216WMR968SP,2013-12-14 14:07:00,
2013-12-14 09:12:00,10.0,-11.3,17.72,SE,146,0.0,6.3,37,0.00,,,0.00,WUHU216WMR968SP,2013-12-14 14:12:00,
2013-12-14 09:17:00,9.5,-11.7,17.72,NNE,27,0.0,6.3,37,0.00,,,0.00,WUHU216WMR968SP,2013-12-14 14:17:00,
2013-12-14 09:22:00,9.3,-11.9,17.72,NE,35,0.0,4.9,37,0.00,,,0.00,WUHU216WMR968SP,2013-12-14 14:22:00,
2013-12-14 09:27:00,9.5,-11.7,17.72,NE,34,0.0,3.6,37,0.00,,,0.00,WUHU216WMR968SP,2013-12-14 14:27:00,
2013-12-14 09:32:00,9.7,-11.6,17.72,South,191,0.0,3.6,37,0.00,,,0.00,WUHU216WMR968SP,2013-12-14 14:32:00,
2013-12-14 09:37:00,9.7,-11.6,17.72,South,177,0.0,0.0,37,0.00,,,0.00,WUHU216WMR968SP,2013-12-14 14:37:00,
2013-12-14 09:42:00,9.7,-11.6,17.72,ESE,106,0.0,3.1,37,0.00,,,0.00,WUHU216WMR968SP,2013-12-14 14:42:00,
2013-12-14 09:47:00,9.0,-12.2,17.72,ENE,65,2.2,4.5,37,0.00,,,0.00,WUHU216WMR968SP,2013-12-14 14:47:00,
2013-12-14 09:52:00,9.1,-12.1,17.72,ESE,102,0.0,5.4,37,0.00,,,0.00,WUHU216WMR968SP,2013-12-14 14:52:00,
2013-12-14 09:57:00,9.1,-12.1,17.72,NNE,33,0.0,5.4,37,0.00,,,0.00,WUHU216WMR968SP,2013-12-14 14:57:00,
2013-12-14 10:02:00,8.6,-12.6,17.72,NNE,24,0.0,6.3,37,0.00,,,0.00,WUHU216WMR968SP,2013-12-14 15:02:00,
2013-12-14 10:07:00,8.4,-12.7,17.72,ESE,110,0.0,6.3,37,0.00,,,0.00,WUHU216WMR968SP,2013-12-14 15:07:00,
2013-12-14 10:12:00,8.4,-12.7,17.72,ENE,61,0.0,5.4,37,0.00,,,0.00,WUHU216WMR968SP,2013-12-14 15:12:00,
2013-12-14 10:17:00,8.8,-12.4,17.72,NE,53,0.0,5.4,37,0.00,,,0.00,WUHU216WMR968SP,2013-12-14 15:17:00,
2013-12-14 10:22:00,9.1,-12.1,17.72,SSE,162,2.7,4.9,37,0.00,,,0.00,WUHU216WMR968SP,2013-12-14 15:22:00,
2013-12-14 10:27:00,9.3,-11.9,17.72,ENE,75,0.0,3.6,37,0.00,,,0.00,WUHU216WMR968SP,2013-12-14 15:27:00,
2013-12-14 10:32:00,9.0,-12.2,17.72,East,87,0.0,4.0,37,0.00,,,0.00,WUHU216WMR968SP,2013-12-14 15:32:00,
2013-12-14 10:37:00,9.3,-11.9,17.72,NE,48,0.0,4.0,37,0.00,,,0.00,WUHU216WMR968SP,2013-12-14 15:37:00,
2013-12-14 10:42:00,9.7,-11.6,17.72,NE,48,3.6,5.4,37,0.00,,,0.00,WUHU216WMR968SP,2013-12-14 15:42:00,
2013-12-14 10:47:00,10.0,-11.3,17.72,ENE,76,2.7,5.4,37,0.00,,,0.00,WUHU216WMR968SP,2013-12-14 15:47:00,
2013-12-14 10:52:00,10.4,-10.9,17.72,ESE,119,0.0,4.0,37,0.00,,,0.00,WUHU216WMR968SP,2013-12-14 15:52:00,
2013-12-14 10:57:00,10.9,-10.5,17.72,ESE,112,0.0,2.7,37,0.00,,,0.00,WUHU216WMR968SP,2013-12-14 15:57:00,
2013-12-14 11:02:00,11.7,-9.8,17.72,SSE,160,0.0,0.0,37,0.00,,,0.00,WUHU216WMR968SP,2013-12-14 16:02:00,
2013-12-14 11:07:00,12.0,-9.5,17.72,ESE,110,0.0,0.0,37,0.00,,,0.00,WUHU216WMR968SP,2013-12-14 16:07:00,
2013-12-14 11:12:00,12.7,-8.9,17.72,East,96,0.0,0.0,37,0.00,,,0.00,WUHU216WMR968SP,2013-12-14 16:12:00,
2013-12-14 11:17:00,13.3,-8.3,17.72,SSW,192,0.0,0.0,37,0.00,,,0.00,WUHU216WMR968SP,2013-12-14 16:17:00,
2013-12-14 11:22:00,13.5,-8.2,17.72,ESE,120,0.0,0.0,37,0.00,,,0.00,WUHU216WMR968SP,2013-12-14 16:22:00,
2013-12-14 11:27:00,13.6,-8.1,17.72,East,79,0.0,0.0,37,0.00,,,0.00,WUHU216WMR968SP,2013-12-14 16:27:00,
2013-12-14 11:32:00,13.3,-8.3,17.72,ENE,76,0.0,0.0,37,0.00,,,0.00,WUHU216WMR968SP,2013-12-14 16:32:00,
2013-12-14 11:37:00,13.3,-8.3,17.72,SE,124,0.0,0.0,37,0.00,,,0.00,WUHU216WMR968SP,2013-12-14 16:37:00,
2013-12-14 11:42:00,12.9,-8.7,17.72,SSW,196,0.0,0.0,37,0.00,,,0.00,WUHU216WMR968SP,2013-12-14 16:42:00,
2013-12-14 11:47:00,12.9,-8.7,17.72,ESE,108,0.0,0.0,37,0.00,,,0.00,WUHU216WMR968SP,2013-12-14 16:47:00,
2013-12-14 11:52:00,13.3,-8.3,17.72,SSE,165,0.0,0.0,37,0.00,,,0.00,WUHU216WMR968SP,2013-12-14 16:52:00,
2013-12-14 11:57:00,13.6,-8.1,17.72,SSE,150,0.0,0.0,37,0.00,,,0.00,WUHU216WMR968SP,2013-12-14 16:57:00,
2013-12-14 12:02:00,13.8,-7.9,17.72,South,173,0.0,0.0,37,0.00,,,0.00,WUHU216WMR968SP,2013-12-14 17:02:00,
2013-12-14 12:07:00,14.0,-16.3,17.72,East,96,0.0,0.0,24,0.00,,,0.00,WUHU216WMR968SP,2013-12-14 17:07:00,
2013-12-14 12:12:00,14.2,-16.1,17.72,SSE,158,0.0,0.0,24,0.00,,,0.00,WUHU216WMR968SP,2013-12-14 17:12:00,
2013-12-14 12:17:00,14.7,-15.7,17.72,ENE,67,0.0,0.0,24,0.00,,,0.00,WUHU216WMR968SP,2013-12-14 17:17:00,
2013-12-14 12:22:00,15.1,-15.3,17.72,SSE,156,0.0,0.0,24,0.00,,,0.00,WUHU216WMR968SP,2013-12-14 17:22:00,
2013-12-14 12:27:00,15.6,-14.9,17.72,NE,54,0.0,0.0,24,0.00,,,0.00,WUHU216WMR968SP,2013-12-14 17:27:00,
2013-12-14 12:32:00,16.0,-15.4,17.72,SSW,193,0.0,0.0,23,0.00,,,0.00,WUHU216WMR968SP,2013-12-14 17:32:00,
2013-12-14 12:37:00,16.2,-15.2,17.72,South,173,0.0,0.0,23,0.00,,,0.00,WUHU216WMR968SP,2013-12-14 17:37:00,
2013-12-14 12:42:00,16.3,-15.1,17.72,South,180,0.0,0.0,23,0.00,,,0.00,WUHU216WMR968SP,2013-12-14 17:42:00,
2013-12-14 12:47:00,16.9,-14.6,17.72,NE,56,0.0,4.0,23,0.00,,,0.00,WUHU216WMR968SP,2013-12-14 17:47:00,
2013-12-14 12:52:00,17.1,-14.4,17.72,NNE,20,3.6,4.9,23,0.00,,,0.00,WUHU216WMR968SP,2013-12-14 17:52:00,
2013-12-14 12:57:00,16.7,-14.8,17.72,North,0,2.7,6.3,23,0.00,,,0.00,WUHU216WMR968SP,2013-12-14 17:57:00,
2013-12-14 13:02:00,16.9,-14.6,17.72,NNE,23,3.6,6.3,23,0.00,,,0.00,WUHU216WMR968SP,2013-12-14 18:02:00,
2013-12-14 13:07:00,16.9,-14.6,17.72,NE,55,2.2,5.8,23,0.00,,,0.00,WUHU216WMR968SP,2013-12-14 18:07:00,
2013-12-14 13:12:00,17.2,-14.3,17.72,NNE,26,0.0,5.8,23,0.00,,,0.00,WUHU216WMR968SP,2013-12-14 18:12:00,
2013-12-14 13:17:00,16.7,-14.8,17.72,ENE,64,4.0,5.8,23,0.00,,,0.00,WUHU216WMR968SP,2013-12-14 18:17:00,
2013-12-14 13:22:00,16.0,-15.4,17.72,ENE,75,0.0,5.8,23,0.00,,,0.00,WUHU216WMR968SP,2013-12-14 18:22:00,
2013-12-14 13:27:00,16.0,-15.4,17.72,NNE,21,0.0,4.0,23,0.00,,,0.00,WUHU216WMR968SP,2013-12-14 18:27:00,
2013-12-14 13:32:00,15.4,-15.1,17.72,NNE,26,3.6,5.4,24,0.00,,,0.00,WUHU216WMR968SP,2013-12-14 18:32:00,
2013-12-14 13:37:00,15.4,-15.1,17.72,NNE,26,3.6,5.4,24,0.00,,,0.00,WUHU216WMR968SP,2013-12-14 18:37:00,
2013-12-14 13:42:00,15.4,-15.1,17.72,NNE,27,4.5,5.8,24,0.00,,,0.00,WUHU216WMR968SP,2013-12-14 18:42:00,
2013-12-14 13:47:00,15.4,-15.1,17.72,ENE,70,4.0,6.3,24,0.00,,,0.00,WUHU216WMR968SP,2013-12-14 18:47:00,
2013-12-14 13:52:00,15.4,-15.1,17.72,NNE,16,2.7,6.3,24,0.00,,,0.00,WUHU216WMR968SP,2013-12-14 18:52:00,
2013-12-14 13:57:00,15.4,-15.1,17.72,NE,48,3.1,6.3,24,0.00,,,0.00,WUHU216WMR968SP,2013-12-14 18:57:00,
2013-12-14 14:02:00,15.6,-14.9,17.72,ENE,70,3.1,6.3,24,0.00,,,0.00,WUHU216WMR968SP,2013-12-14 19:02:00,
2013-12-14 14:07:00,15.4,-15.1,17.72,ENE,69,4.0,5.8,24,0.00,,,0.00,WUHU216WMR968SP,2013-12-14 19:07:00,
2013-12-14 14:12:00,15.6,-14.9,17.72,NE,35,3.6,5.8,24,0.00,,,0.00,WUHU216WMR968SP,2013-12-14 19:12:00,
2013-12-14 14:17:00,15.3,-15.1,17.72,NNE,29,3.1,5.4,24,0.00,,,0.00,WUHU216WMR968SP,2013-12-14 19:17:00,
2013-12-14 14:22:00,15.1,-15.3,17.72,NE,37,3.1,5.8,24,0.00,,,0.00,WUHU216WMR968SP,2013-12-14 19:22:00,
2013-12-14 14:27:00,14.9,-15.5,17.72,East,95,2.7,5.8,24,0.00,,,0.00,WUHU216WMR968SP,2013-12-14 19:27:00,
2013-12-14 14:32:00,14.5,-15.8,17.72,NE,41,3.6,4.9,24,0.00,,,0.00,WUHU216WMR968SP,2013-12-14 19:32:00,
2013-12-14 14:37:00,14.5,-15.8,17.72,NE,44,3.6,5.4,24,0.00,,,0.00,WUHU216WMR968SP,2013-12-14 19:37:00,
2013-12-14 14:42:00,14.5,-15.8,17.72,ENE,76,3.1,5.4,24,0.00,,,0.00,WUHU216WMR968SP,2013-12-14 19:42:00,
2013-12-14 14:47:00,14.7,-15.7,17.72,NNE,18,2.2,5.4,24,0.00,,,0.00,WUHU216WMR968SP,2013-12-14 19:47:00,
2013-12-14 14:52:00,14.9,-15.5,17.72,NNE,25,0.0,4.0,24,0.00,,,0.00,WUHU216WMR968SP,2013-12-14 19:52:00,
2013-12-14 14:57:00,14.9,-15.5,17.72,North,353,0.0,3.6,24,0.00,,,0.00,WUHU216WMR968SP,2013-12-14 19:57:00,
2013-12-14 15:02:00,14.5,-15.8,17.72,NNE,18,0.0,0.0,24,0.00,,,0.00,WUHU216WMR968SP,2013-12-14 20:02:00,
2013-12-14 15:07:00,14.5,-15.8,17.72,NE,46,0.0,4.9,24,0.00,,,0.00,WUHU216WMR968SP,2013-12-14 20:07:00,
2013-12-14 15:12:00,14.4,-15.9,17.72,North,11,2.2,4.9,24,0.00,,,0.00,WUHU216WMR968SP,2013-12-14 20:12:00,
2013-12-14 15:17:00,14.4,-15.9,17.72,North,357,2.7,4.0,24,0.00,,,0.00,WUHU216WMR968SP,2013-12-14 20:17:00,
2013-12-14 15:22:00,14.4,-15.9,17.72,NNE,26,2.7,4.0,24,0.00,,,0.00,WUHU216WMR968SP,2013-12-14 20:22:00,
2013-12-14 15:27:00,14.2,-16.1,17.72,North,4,2.2,4.0,24,0.00,,,0.00,WUHU216WMR968SP,2013-12-14 20:27:00,
2013-12-14 15:32:00,14.2,-16.1,17.72,North,0,2.7,4.0,24,0.00,,,0.00,WUHU216WMR968SP,2013-12-14 20:32:00,
2013-12-14 15:37:00,14.2,-16.1,17.72,North,10,0.0,4.0,24,0.00,,,0.00,WUHU216WMR968SP,2013-12-14 20:37:00,
2013-12-14 15:42:00,14.0,-16.3,17.72,NE,52,0.0,2.7,24,0.00,,,0.00,WUHU216WMR968SP,2013-12-14 20:42:00,
2013-12-14 15:47:00,13.8,-16.4,17.72,NNE,21,0.0,0.0,24,0.00,,,0.00,WUHU216WMR968SP,2013-12-14 20:47:00,
2013-12-14 15:52:00,13.8,-16.4,17.72,NNE,28,0.0,0.0,24,0.00,,,0.00,WUHU216WMR968SP,2013-12-14 20:52:00,
2013-12-14 15:57:00,13.6,-16.6,17.72,NNE,18,0.0,0.0,24,0.00,,,0.00,WUHU216WMR968SP,2013-12-14 20:57:00,
2013-12-14 16:02:00,13.6,-16.6,17.72,WSW,239,0.0,0.0,24,0.00,,,0.00,WUHU216WMR968SP,2013-12-14 21:02:00,
2013-12-14 16:07:00,13.6,-16.6,17.72,NNE,17,0.0,0.0,24,0.00,,,0.00,WUHU216WMR968SP,2013-12-14 21:07:00,
2013-12-14 16:12:00,13.6,-16.6,17.72,NNE,24,0.0,0.0,24,0.00,,,0.00,WUHU216WMR968SP,2013-12-14 21:12:00,
2013-12-14 16:17:00,13.6,-16.6,17.72,West,259,0.0,0.0,24,0.00,,,0.00,WUHU216WMR968SP,2013-12-14 21:17:00,
2013-12-14 16:23:00,13.6,-16.6,17.72,North,9,3.6,6.3,24,0.00,,,0.00,WUHU216WMR968SP,2013-12-14 21:23:00,
2013-12-14 16:28:00,13.6,-16.6,17.72,North,4,0.0,6.3,24,0.00,,,0.00,WUHU216WMR968SP,2013-12-14 21:28:00,
2013-12-14 16:33:00,13.6,-16.6,17.72,NW,318,0.0,4.9,24,0.00,,,0.00,WUHU216WMR968SP,2013-12-14 21:33:00,
2013-12-14 16:38:00,13.6,-16.6,17.72,NW,326,0.0,4.9,24,0.00,,,0.00,WUHU216WMR968SP,2013-12-14 21:38:00,
2013-12-14 16:43:00,13.6,-16.6,17.72,NNE,20,0.0,0.0,24,0.00,,,0.00,WUHU216WMR968SP,2013-12-14 21:43:00,
2013-12-14 16:48:00,13.6,-16.6,17.72,North,357,0.0,4.9,24,0.00,,,0.00,WUHU216WMR968SP,2013-12-14 21:48:00,
2013-12-14 16:53:00,13.6,-16.6,17.72,North,357,0.0,4.9,24,0.00,,,0.00,WUHU216WMR968SP,2013-12-14 21:53:00,
2013-12-14 16:58:00,13.6,-16.6,17.72,North,7,0.0,0.0,24,0.00,,,0.00,WUHU216WMR968SP,2013-12-14 21:58:00,
2013-12-14 17:03:00,13.6,-16.6,17.72,North,8,0.0,0.0,24,0.00,,,0.00,WUHU216WMR968SP,2013-12-14 22:03:00,
2013-12-14 17:08:00,13.6,-16.6,17.72,NNE,27,0.0,0.0,24,0.00,,,0.00,WUHU216WMR968SP,2013-12-14 22:08:00,
2013-12-14 17:13:00,13.8,-16.4,17.72,North,8,0.0,0.0,24,0.00,,,0.00,WUHU216WMR968SP,2013-12-14 22:13:00,
2013-12-14 17:18:00,13.8,-16.4,17.72,NNE,16,0.0,0.0,24,0.00,,,0.00,WUHU216WMR968SP,2013-12-14 22:18:00,
2013-12-14 17:23:00,13.8,-16.4,17.72,North,8,0.0,0.0,24,0.00,,,0.00,WUHU216WMR968SP,2013-12-14 22:23:00,
2013-12-14 17:28:00,14.0,-16.3,17.72,North,11,0.0,0.0,24,0.00,,,0.00,WUHU216WMR968SP,2013-12-14 22:28:00,
2013-12-14 17:33:00,14.2,-16.1,17.72,North,11,0.0,0.0,24,0.00,,,0.00,WUHU216WMR968SP,2013-12-14 22:33:00,
2013-12-14 17:38:00,14.2,-16.1,17.72,NNE,17,0.0,0.0,24,0.00,,,0.00,WUHU216WMR968SP,2013-12-14 22:38:00,
2013-12-14 17:43:00,14.2,-16.1,17.72,North,11,0.0,0.0,24,0.00,,,0.00,WUHU216WMR968SP,2013-12-14 22:43:00,
2013-12-14 17:48:00,14.2,-16.1,17.72,North,3,0.0,0.0,24,0.00,,,0.00,WUHU216WMR968SP,2013-12-14 22:48:00,
2013-12-14 17:53:00,14.0,-16.3,17.72,North,0,0.0,0.0,24,0.00,,,0.00,WUHU216WMR968SP,2013-12-14 22:53:00,
2013-12-14 17:58:00,14.0,-16.3,17.72,NNE,25,0.0,0.0,24,0.00,,,0.00,WUHU216WMR968SP,2013-12-14 22:58:00,
2013-12-14 18:03:00,14.0,-16.3,17.72,North,357,0.0,0.0,24,0.00,,,0.00,WUHU216WMR968SP,2013-12-14 23:03:00,
2013-12-14 18:08:00,14.0,-16.3,17.72,ENE,77,0.0,0.0,24,0.00,,,0.00,WUHU216WMR968SP,2013-12-14 23:08:00,
2013-12-14 18:13:00,13.8,-16.4,17.72,North,357,5.4,7.6,24,0.00,,,0.00,WUHU216WMR968SP,2013-12-14 23:13:00,
2013-12-14 18:18:00,13.5,-16.7,17.72,North,7,4.5,7.6,24,0.00,,,0.00,WUHU216WMR968SP,2013-12-14 23:18:00,
2013-12-14 18:23:00,13.5,-16.7,17.72,North,6,4.0,7.6,24,0.00,,,0.00,WUHU216WMR968SP,2013-12-14 23:23:00,
2013-12-14 18:28:00,13.5,-16.7,17.72,NNE,32,2.2,5.8,24,0.00,,,0.00,WUHU216WMR968SP,2013-12-14 23:28:00,
2013-12-14 18:33:00,13.5,-16.7,17.72,NNE,17,2.2,5.8,24,0.00,,,0.00,WUHU216WMR968SP,2013-12-14 23:33:00,
2013-12-14 18:38:00,13.1,-17.0,17.72,NW,311,3.1,7.6,24,0.00,,,0.00,WUHU216WMR968SP,2013-12-14 23:38:00,
2013-12-14 18:43:00,12.9,-17.2,17.72,NNW,333,2.7,7.6,24,0.00,,,0.00,WUHU216WMR968SP,2013-12-14 23:43:00,
2013-12-14 18:48:00,12.9,-17.2,17.72,North,0,0.0,5.8,24,0.00,,,0.00,WUHU216WMR968SP,2013-12-14 23:48:00,
2013-12-14 18:53:00,12.9,-17.2,17.72,NE,48,0.0,5.8,24,0.00,,,0.00,WUHU216WMR968SP,2013-12-14 23:53:00,
2013-12-14 18:58:00,12.7,-17.4,17.72,NNE,19,0.0,4.0,24,0.00,,,0.00,WUHU216WMR968SP,2013-12-14 23:58:00,
2013-12-14 19:03:00,12.6,-17.5,17.72,West,270,2.7,4.9,24,0.00,,,0.00,WUHU216WMR968SP,2013-12-15 00:03:00,
2013-12-14 19:08:00,12.4,-17.6,17.72,North,8,3.1,4.9,24,0.00,,,0.00,WUHU216WMR968SP,2013-12-15 00:08:00,
2013-12-14 19:13:00,12.6,-17.5,17.72,NW,325,2.2,4.0,24,0.00,,,0.00,WUHU216WMR968SP,2013-12-15 00:13:00,
2013-12-14 19:18:00,12.6,-17.5,17.72,North,9,2.7,4.0,24,0.00,,,0.00,WUHU216WMR968SP,2013-12-15 00:18:00,
2013-12-14 19:23:00,12.4,-17.6,17.72,NNE,14,2.7,4.0,24,0.00,,,0.00,WUHU216WMR968SP,2013-12-15 00:23:00,
2013-12-14 19:28:00,12.2,-17.8,17.72,North,353,0.0,5.4,24,0.00,,,0.00,WUHU216WMR968SP,2013-12-15 00:28:00,
2013-12-14 19:33:00,12.2,-17.8,17.72,North,5,0.0,5.8,24,0.00,,,0.00,WUHU216WMR968SP,2013-12-15 00:33:00,
2013-12-14 19:38:00,12.0,-18.0,17.72,North,353,0.0,5.8,24,0.00,,,0.00,WUHU216WMR968SP,2013-12-15 00:38:00,
2013-12-14 19:43:00,12.0,-18.0,17.72,NE,50,0.0,3.1,24,0.00,,,0.00,WUHU216WMR968SP,2013-12-15 00:43:00,
2013-12-14 19:48:00,12.0,-18.0,17.72,NNE,29,0.0,4.0,24,0.00,,,0.00,WUHU216WMR968SP,2013-12-15 00:48:00,
2013-12-14 19:53:00,12.0,-18.0,17.72,East,100,0.0,4.0,24,0.00,,,0.00,WUHU216WMR968SP,2013-12-15 00:53:00,
2013-12-14 19:58:00,12.0,-18.0,17.72,NE,43,0.0,4.0,24,0.00,,,0.00,WUHU216WMR968SP,2013-12-15 00:58:00,
2013-12-14 20:03:00,11.8,-18.1,17.72,NNW,344,3.1,8.3,24,0.00,,,0.00,WUHU216WMR968SP,2013-12-15 01:03:00,
2013-12-14 20:08:00,11.7,-18.2,17.72,NNE,21,0.0,8.3,24,0.00,,,0.00,WUHU216WMR968SP,2013-12-15 01:08:00,
2013-12-14 20:13:00,11.7,-18.2,17.72,West,267,2.7,6.3,24,0.00,,,0.00,WUHU216WMR968SP,2013-12-15 01:13:00,
2013-12-14 20:18:00,11.5,-18.4,17.72,NNE,27,2.7,6.3,24,0.00,,,0.00,WUHU216WMR968SP,2013-12-15 01:18:00,
2013-12-14 20:23:00,11.5,-18.4,17.72,ESE,106,0.0,4.9,24,0.00,,,0.00,WUHU216WMR968SP,2013-12-15 01:23:00,
2013-12-14 20:28:00,11.3,-18.6,17.72,North,10,0.0,6.3,24,0.00,,,0.00,WUHU216WMR968SP,2013-12-15 01:28:00,
2013-12-14 20:33:00,11.1,-18.7,17.72,WSW,237,2.7,6.3,24,0.00,,,0.00,WUHU216WMR968SP,2013-12-15 01:33:00,
2013-12-14 20:38:00,11.1,-18.7,17.72,NNE,12,2.7,5.8,24,0.00,,,0.00,WUHU216WMR968SP,2013-12-15 01:38:00,
2013-12-14 20:43:00,11.3,-18.6,17.72,North,6,3.6,5.4,24,0.00,,,0.00,WUHU216WMR968SP,2013-12-15 01:43:00,
2013-12-14 20:48:00,11.3,-18.6,17.72,SSE,153,2.7,4.9,24,0.00,,,0.00,WUHU216WMR968SP,2013-12-15 01:48:00,
2013-12-14 20:53:00,11.3,-18.6,17.72,North,0,0.0,4.9,24,0.00,,,0.00,WUHU216WMR968SP,2013-12-15 01:53:00,
2013-12-14 20:58:00,11.3,-18.6,17.72,NNE,31,0.0,4.9,24,0.00,,,0.00,WUHU216WMR968SP,2013-12-15 01:58:00,
2013-12-14 21:03:00,11.3,-18.6,17.72,NNE,19,0.0,4.9,24,0.00,,,0.00,WUHU216WMR968SP,2013-12-15 02:03:00,
2013-12-14 21:08:00,11.3,-18.6,17.72,ENE,57,0.0,4.5,24,0.00,,,0.00,WUHU216WMR968SP,2013-12-15 02:08:00,
2013-12-14 21:13:00,11.3,-18.6,17.72,SSW,205,0.0,0.0,24,0.00,,,0.00,WUHU216WMR968SP,2013-12-15 02:13:00,
2013-12-14 21:18:00,11.5,-18.4,17.72,East,100,0.0,0.0,24,0.00,,,0.00,WUHU216WMR968SP,2013-12-15 02:18:00,
2013-12-14 21:23:00,11.5,-18.4,17.72,South,190,0.0,0.0,24,0.00,,,0.00,WUHU216WMR968SP,2013-12-15 02:23:00,
2013-12-14 21:28:00,11.7,-18.2,17.72,NNW,340,0.0,0.0,24,0.00,,,0.00,WUHU216WMR968SP,2013-12-15 02:28:00,
2013-12-14 21:33:00,11.7,-18.2,17.72,North,7,0.0,0.0,24,0.00,,,0.00,WUHU216WMR968SP,2013-12-15 02:33:00,
2013-12-14 21:38:00,11.8,-18.1,17.72,NNE,28,2.2,4.0,24,0.00,,,0.00,WUHU216WMR968SP,2013-12-15 02:38:00,
2013-12-14 21:43:00,11.8,-18.1,17.72,NNE,13,2.2,4.0,24,0.00,,,0.00,WUHU216WMR968SP,2013-12-15 02:43:00,
2013-12-14 21:48:00,11.8,-18.1,17.72,ENE,58,0.0,4.0,24,0.00,,,0.00,WUHU216WMR968SP,2013-12-15 02:48:00,
2013-12-14 21:53:00,11.7,-18.2,17.72,ENE,68,0.0,4.0,24,0.00,,,0.00,WUHU216WMR968SP,2013-12-15 02:53:00,
2013-12-14 21:58:00,11.7,-18.2,17.72,SE,140,0.0,4.9,24,0.00,,,0.00,WUHU216WMR968SP,2013-12-15 02:58:00,
2013-12-14 22:03:00,11.7,-18.2,17.72,SSE,165,0.0,4.9,24,0.00,,,0.00,WUHU216WMR968SP,2013-12-15 03:03:00,
2013-12-14 22:08:00,11.7,-18.2,17.72,North,8,0.0,0.0,24,0.00,,,0.00,WUHU216WMR968SP,2013-12-15 03:08:00,
2013-12-14 22:13:00,11.5,-18.4,17.72,NE,46,0.0,4.0,24,0.00,,,0.00,WUHU216WMR968SP,2013-12-15 03:13:00,
2013-12-14 22:18:00,11.5,-18.4,17.72,North,0,0.0,4.0,24,0.00,,,0.00,WUHU216WMR968SP,2013-12-15 03:18:00,
2013-12-14 22:23:00,11.3,-18.6,17.72,NE,35,0.0,4.0,24,0.00,,,0.00,WUHU216WMR968SP,2013-12-15 03:23:00,
2013-12-14 22:28:00,11.3,-18.6,17.72,South,176,2.2,5.4,24,0.00,,,0.00,WUHU216WMR968SP,2013-12-15 03:28:00,
2013-12-14 22:33:00,11.3,-18.6,17.72,NNE,25,0.0,5.4,24,0.00,,,0.00,WUHU216WMR968SP,2013-12-15 03:33:00,
2013-12-14 22:38:00,11.5,-18.4,17.72,East,88,0.0,2.2,24,0.00,,,0.00,WUHU216WMR968SP,2013-12-15 03:38:00,
2013-12-14 22:43:00,11.5,-18.4,17.72,SSW,208,0.0,0.0,24,0.00,,,0.00,WUHU216WMR968SP,2013-12-15 03:43:00,
2013-12-14 22:48:00,11.3,-18.6,17.72,ENE,60,0.0,0.0,24,0.00,,,0.00,WUHU216WMR968SP,2013-12-15 03:48:00,
2013-12-14 22:53:00,11.3,-18.6,17.72,NNE,19,0.0,4.0,24,0.00,,,0.00,WUHU216WMR968SP,2013-12-15 03:53:00,
2013-12-14 22:58:00,11.3,-18.6,17.72,NE,37,0.0,4.0,24,0.00,,,0.00,WUHU216WMR968SP,2013-12-15 03:58:00,
2013-12-14 23:03:00,11.3,-18.6,17.72,East,84,0.0,0.0,24,0.00,,,0.00,WUHU216WMR968SP,2013-12-15 04:03:00,
2013-12-14 23:08:00,11.3,-18.6,17.72,NE,56,0.0,0.0,24,0.00,,,0.00,WUHU216WMR968SP,2013-12-15 04:08:00,
2013-12-14 23:13:00,11.3,-18.6,17.72,North,1,0.0,0.0,24,0.00,,,0.00,WUHU216WMR968SP,2013-12-15 04:13:00,
2013-12-14 23:18:00,11.3,-18.6,17.72,NNE,29,0.0,2.7,24,0.00,,,0.00,WUHU216WMR968SP,2013-12-15 04:18:00,
2013-12-14 23:23:00,11.5,-18.4,17.72,East,83,0.0,4.0,24,0.00,,,0.00,WUHU216WMR968SP,2013-12-15 04:23:00,
2013-12-14 23:28:00,11.3,-18.6,17.72,NE,37,0.0,4.0,24,0.00,,,0.00,WUHU216WMR968SP,2013-12-15 04:28:00,
2013-12-14 23:33:00,11.3,-18.6,17.72,NNE,24,0.0,0.0,24,0.00,,,0.00,WUHU216WMR968SP,2013-12-15 04:33:00,
2013-12-14 23:38:00,11.5,-18.4,17.72,SW,224,0.0,4.0,24,0.00,,,0.00,WUHU216WMR968SP,2013-12-15 04:38:00,
2013-12-14 23:43:00,11.5,-18.4,17.72,NNE,21,0.0,4.0,24,0.00,,,0.00,WUHU216WMR968SP,2013-12-15 04:43:00,
2013-12-14 23:48:00,11.3,-18.6,17.72,NNW,335,0.0,4.0,24,0.00,,,0.00,WUHU216WMR968SP,2013-12-15 04:48:00,
2013-12-14 23:53:00,11.5,-18.4,17.72,NNE,18,0.0,4.0,24,0.00,,,0.00,WUHU216WMR968SP,2013-12-15 04:53:00,
2013-12-14 23:58:00,11.3,-18.6,17.72,NE,50,0.0,4.0,24,0.00,,,0.00,WUHU216WMR968SP,2013-12-15 04:58:00,